AFL6509 UWKD-UUEE

Flight info

Callsign AFL6509
Flight time N/A
Altitude 40000
Route APTAR1G APTAR L158 DIMGI DIMGI3F
Aircraft SU95/M-SDE3GILORVW/S

Departure

Time 2026-05-07 17:25
Airport Kazan International Airport (UWKD)

Arrival

Time N/A
Airport Sheremetyevo International Airport (UUEE)
Time Latitude Longitude Altitude Speed Heading
2026-05-07 16:56 55.60654 49.29735 404 ft 0 kts 34°
2026-05-07 17:09 55.60662 49.29744 400 ft 5 kts 34°
2026-05-07 17:09 55.60720 49.29723 404 ft 15 kts 299°
2026-05-07 17:09 55.60768 49.29595 403 ft 12 kts 307°
2026-05-07 17:10 55.60789 49.29542 404 ft 4 kts 304°
2026-05-07 17:10 55.60805 49.29498 404 ft 5 kts 304°
2026-05-07 17:10 55.60811 49.29434 404 ft 6 kts 234°
2026-05-07 17:10 55.60770 49.29372 404 ft 10 kts 214°
2026-05-07 17:11 55.60702 49.29289 404 ft 13 kts 214°
2026-05-07 17:11 55.60638 49.29212 404 ft 7 kts 214°
2026-05-07 17:11 55.60598 49.29153 404 ft 8 kts 230°
2026-05-07 17:11 55.60577 49.29058 404 ft 10 kts 265°
2026-05-07 17:12 55.60584 49.28868 404 ft 20 kts 274°
2026-05-07 17:12 55.60594 49.28647 404 ft 15 kts 278°
2026-05-07 17:12 55.60630 49.28518 404 ft 12 kts 305°
2026-05-07 17:12 55.60679 49.28391 403 ft 14 kts 305°
2026-05-07 17:13 55.60740 49.28234 404 ft 17 kts 303°
2026-05-07 17:13 55.60813 49.28047 404 ft 21 kts 304°
2026-05-07 17:13 55.60913 49.27790 404 ft 26 kts 304°
2026-05-07 17:13 55.61007 49.27545 401 ft 24 kts 304°
2026-05-07 17:14 55.61103 49.27298 403 ft 24 kts 304°
2026-05-07 17:14 55.61185 49.27087 401 ft 18 kts 304°
2026-05-07 17:14 55.61257 49.26901 403 ft 19 kts 304°
2026-05-07 17:14 55.61321 49.26738 404 ft 14 kts 305°
2026-05-07 17:15 55.61353 49.26655 401 ft 6 kts 303°
2026-05-07 17:15 55.61385 49.26570 401 ft 11 kts 305°
2026-05-07 17:15 55.61437 49.26438 404 ft 15 kts 304°
2026-05-07 17:15 55.61501 49.26272 402 ft 13 kts 304°
2026-05-07 17:16 55.61556 49.26130 400 ft 15 kts 304°
2026-05-07 17:16 55.61606 49.26001 403 ft 12 kts 304°
2026-05-07 17:16 55.61648 49.25893 403 ft 10 kts 304°
2026-05-07 17:16 55.61683 49.25804 400 ft 8 kts 304°
2026-05-07 17:17 55.61717 49.25715 402 ft 9 kts 304°
2026-05-07 17:17 55.61756 49.25615 400 ft 11 kts 304°
2026-05-07 17:17 55.61804 49.25489 402 ft 14 kts 304°
2026-05-07 17:17 55.61840 49.25398 404 ft 0 kts 305°
2026-05-07 17:21 55.61849 49.25375 404 ft 7 kts 301°
2026-05-07 17:21 55.61837 49.25276 401 ft 11 kts 223°
2026-05-07 17:21 55.61824 49.25257 404 ft 1 kts 216°
2026-05-07 17:22 55.61804 49.25232 403 ft 3 kts 214°
2026-05-07 17:22 55.61803 49.25231 403 ft 0 kts 214°
2026-05-07 17:23 55.61796 49.25222 403 ft 4 kts 214°
2026-05-07 17:23 55.61763 49.25182 402 ft 7 kts 214°
2026-05-07 17:23 55.61723 49.25141 401 ft 6 kts 192°
2026-05-07 17:23 55.61681 49.25160 401 ft 6 kts 143°
2026-05-07 17:24 55.61669 49.25181 402 ft 0 kts 126°
2026-05-07 17:25 55.61615 49.25323 402 ft 50 kts 123°
2026-05-07 17:25 55.61265 49.26220 402 ft 126 kts 125°
2026-05-07 17:25 55.60718 49.27625 736 ft 150 kts 123°
2026-05-07 17:25 55.60093 49.29258 1435 ft 163 kts 125°
2026-05-07 17:26 55.59428 49.30992 2064 ft 178 kts 126°
2026-05-07 17:26 55.58687 49.32864 2682 ft 196 kts 126°
2026-05-07 17:26 55.57878 49.34859 3667 ft 202 kts 126°
2026-05-07 17:26 55.57000 49.37007 4383 ft 237 kts 126°
2026-05-07 17:27 55.55937 49.39722 4353 ft 297 kts 124°
2026-05-07 17:27 55.54687 49.42911 4550 ft 338 kts 130°
2026-05-07 17:27 55.52809 49.45536 5630 ft 342 kts 154°
2026-05-07 17:27 55.50550 49.46715 6760 ft 346 kts 176°
2026-05-07 17:28 55.48111 49.46434 7556 ft 360 kts 194°
2026-05-07 17:28 55.45706 49.45383 8859 ft 359 kts 197°
2026-05-07 17:28 55.43393 49.43939 9955 ft 360 kts 205°
2026-05-07 17:28 55.41840 49.42660 10223 ft 379 kts 211°
2026-05-07 17:29 55.38962 49.38802 10437 ft 410 kts 229°
2026-05-07 17:29 55.37361 49.34819 10267 ft 387 kts 245°
2026-05-07 17:29 55.36467 49.30598 10128 ft 365 kts 255°
2026-05-07 17:29 55.35893 49.26390 10076 ft 342 kts 265°
2026-05-07 17:30 55.36066 49.22356 9928 ft 324 kts 287°
2026-05-07 17:30 55.36932 49.18808 9810 ft 309 kts 296°
2026-05-07 17:30 55.37843 49.15530 9908 ft 288 kts 297°
2026-05-07 17:30 55.38716 49.12434 9937 ft 281 kts 297°
2026-05-07 17:31 55.39579 49.09378 10291 ft 273 kts 297°
2026-05-07 17:31 55.40387 49.06504 11308 ft 258 kts 297°
2026-05-07 17:31 55.41168 49.03718 12471 ft 256 kts 296°
2026-05-07 17:31 55.41932 49.00776 13075 ft 270 kts 289°
2026-05-07 17:32 55.42377 48.97639 14282 ft 259 kts 279°
2026-05-07 17:32 55.42589 48.94456 15153 ft 262 kts 277°
2026-05-07 17:32 55.42806 48.91149 15554 ft 283 kts 277°
2026-05-07 17:32 55.42932 48.89274 15698 ft 296 kts 277°
2026-05-07 17:33 55.43566 48.84454 16614 ft 304 kts 286°
2026-05-07 17:33 55.44145 48.80888 17587 ft 303 kts 286°
2026-05-07 17:33 55.44760 48.77342 18489 ft 302 kts 287°
2026-05-07 17:33 55.45386 48.73819 19294 ft 302 kts 287°
2026-05-07 17:34 55.46017 48.70154 19754 ft 316 kts 286°
2026-05-07 17:34 55.46653 48.66318 19947 ft 338 kts 286°
2026-05-07 17:34 55.47320 48.62185 19996 ft 361 kts 285°
2026-05-07 17:35 55.47987 48.57998 19993 ft 366 kts 285°
2026-05-07 17:35 55.48670 48.53689 19993 ft 364 kts 285°
2026-05-07 17:36 55.49350 48.49383 19992 ft 364 kts 285°
2026-05-07 17:36 55.50031 48.45062 20141 ft 367 kts 285°
2026-05-07 17:36 55.50715 48.40714 20783 ft 369 kts 285°
2026-05-07 17:36 55.51405 48.36320 21577 ft 371 kts 285°
2026-05-07 17:37 55.52094 48.31918 22253 ft 376 kts 285°
2026-05-07 17:37 55.52792 48.27449 22956 ft 380 kts 285°
2026-05-07 17:37 55.53495 48.22931 23630 ft 384 kts 285°
2026-05-07 17:37 55.54202 48.18369 24220 ft 387 kts 285°
2026-05-07 17:38 55.54911 48.13777 24824 ft 389 kts 285°
2026-05-07 17:38 55.55394 48.10646 25200 ft 392 kts 285°
2026-05-07 17:38 55.56115 48.05965 25764 ft 395 kts 285°
2026-05-07 17:38 55.56836 48.01270 26320 ft 398 kts 285°
2026-05-07 17:39 55.57565 47.96517 26863 ft 402 kts 285°
2026-05-07 17:39 55.58298 47.91719 27403 ft 405 kts 285°
2026-05-07 17:39 55.59031 47.86913 27928 ft 408 kts 285°
2026-05-07 17:39 55.59723 47.82360 28375 ft 411 kts 285°
2026-05-07 17:40 55.60466 47.77458 28882 ft 414 kts 285°
2026-05-07 17:40 55.61211 47.72525 29354 ft 417 kts 285°
2026-05-07 17:40 55.61961 47.67545 29815 ft 420 kts 285°
2026-05-07 17:40 55.62710 47.62555 30250 ft 423 kts 285°
2026-05-07 17:41 55.63467 47.57496 30688 ft 425 kts 284°
2026-05-07 17:41 55.64225 47.52416 31100 ft 427 kts 284°
2026-05-07 17:41 55.64985 47.47306 31515 ft 429 kts 284°
2026-05-07 17:41 55.65745 47.42182 31912 ft 432 kts 284°
2026-05-07 17:42 55.66505 47.37038 32292 ft 434 kts 284°
2026-05-07 17:42 55.67270 47.31849 32681 ft 436 kts 284°
2026-05-07 17:42 55.68033 47.26648 33143 ft 435 kts 284°
2026-05-07 17:42 55.68791 47.21469 33646 ft 434 kts 284°
2026-05-07 17:43 55.69545 47.16300 34121 ft 432 kts 284°
2026-05-07 17:43 55.70296 47.11134 34520 ft 431 kts 284°
2026-05-07 17:43 55.71043 47.05984 34874 ft 431 kts 284°
2026-05-07 17:43 55.71785 47.00847 35233 ft 431 kts 284°
2026-05-07 17:44 55.72377 46.96730 35510 ft 431 kts 284°
2026-05-07 17:44 55.73095 46.91733 35836 ft 430 kts 284°
2026-05-07 17:44 55.73839 46.86536 36162 ft 430 kts 283°
2026-05-07 17:44 55.74573 46.81392 36478 ft 430 kts 283°
2026-05-07 17:45 55.75304 46.76254 36798 ft 429 kts 283°
2026-05-07 17:45 55.76033 46.71119 37089 ft 429 kts 283°
2026-05-07 17:45 55.76756 46.66007 37374 ft 429 kts 283°
2026-05-07 17:45 55.77480 46.60860 37650 ft 429 kts 283°
2026-05-07 17:46 55.78187 46.55813 37907 ft 429 kts 283°
2026-05-07 17:46 55.78908 46.50622 38175 ft 428 kts 282°
2026-05-07 17:46 55.79408 46.45486 38432 ft 427 kts 276°
2026-05-07 17:46 55.79605 46.40149 38654 ft 427 kts 272°
2026-05-07 17:47 55.79725 46.34951 38830 ft 427 kts 272°
2026-05-07 17:47 55.79856 46.29680 38994 ft 427 kts 272°
2026-05-07 17:47 55.79992 46.24413 39154 ft 427 kts 272°
2026-05-07 17:47 55.80129 46.19134 39311 ft 427 kts 272°
2026-05-07 17:48 55.80264 46.13842 39460 ft 427 kts 272°
2026-05-07 17:48 55.80396 46.08567 39611 ft 427 kts 272°
2026-05-07 17:48 55.80525 46.03296 39750 ft 427 kts 272°
2026-05-07 17:48 55.80650 45.98012 39891 ft 427 kts 272°
2026-05-07 17:49 55.80890 45.87451 39968 ft 427 kts 272°
2026-05-07 17:49 55.81119 45.76914 39978 ft 426 kts 272°
2026-05-07 17:50 55.81339 45.66400 39964 ft 426 kts 272°
2026-05-07 17:50 55.81551 45.55875 39967 ft 426 kts 271°
2026-05-07 17:51 55.81754 45.45345 39967 ft 425 kts 271°
2026-05-07 17:51 55.81946 45.34854 39959 ft 425 kts 271°
2026-05-07 17:52 55.82131 45.24346 39957 ft 425 kts 271°
2026-05-07 17:52 55.82302 45.14093 39959 ft 425 kts 271°
2026-05-07 17:53 55.82468 45.03593 39962 ft 425 kts 271°
2026-05-07 17:53 55.82625 44.93129 39952 ft 425 kts 271°
2026-05-07 17:54 55.82774 44.82626 39961 ft 425 kts 271°
2026-05-07 17:54 55.82914 44.72118 39954 ft 425 kts 271°
2026-05-07 17:55 55.83044 44.61621 39953 ft 425 kts 271°
2026-05-07 17:55 55.83166 44.51117 39952 ft 425 kts 271°
2026-05-07 17:56 55.83279 44.40607 39954 ft 425 kts 271°
2026-05-07 17:56 55.83383 44.30086 39948 ft 424 kts 271°
2026-05-07 17:57 55.83462 44.21370 39954 ft 425 kts 271°
2026-05-07 17:57 55.83497 44.17330 39948 ft 425 kts 271°
2026-05-07 17:58 55.83581 44.06818 39957 ft 424 kts 270°
2026-05-07 17:58 55.83656 43.96301 39949 ft 424 kts 270°
2026-05-07 17:59 55.83722 43.85797 39954 ft 424 kts 270°
2026-05-07 17:59 55.83779 43.75275 39950 ft 424 kts 270°
2026-05-07 18:00 55.83827 43.64779 39952 ft 424 kts 270°
2026-05-07 18:00 55.83866 43.54282 39949 ft 424 kts 270°
2026-05-07 18:01 55.83895 43.44178 39952 ft 423 kts 270°
2026-05-07 18:01 55.83917 43.33843 39942 ft 424 kts 270°
2026-05-07 18:02 55.83933 43.18103 39947 ft 423 kts 270°
2026-05-07 18:03 55.83934 43.13788 39938 ft 423 kts 270°
2026-05-07 18:03 55.83929 43.03313 39940 ft 423 kts 270°
2026-05-07 18:04 55.83916 42.92842 39944 ft 423 kts 270°
2026-05-07 18:04 55.83894 42.82370 39945 ft 423 kts 269°
2026-05-07 18:05 55.83879 42.77019 39934 ft 423 kts 269°
2026-05-07 18:05 55.83844 42.66601 39942 ft 423 kts 269°
2026-05-07 18:06 55.83816 42.59621 39941 ft 423 kts 269°
2026-05-07 18:06 55.83783 42.52657 39941 ft 423 kts 269°
2026-05-07 18:07 55.83727 42.42186 39943 ft 423 kts 269°
2026-05-07 18:07 55.83662 42.31709 39932 ft 423 kts 269°
2026-05-07 18:08 55.83588 42.21162 39941 ft 423 kts 269°
2026-05-07 18:08 55.83505 42.10685 39933 ft 423 kts 269°
2026-05-07 18:09 55.83413 42.00287 39932 ft 423 kts 269°
2026-05-07 18:09 55.83313 41.89812 39928 ft 423 kts 269°
2026-05-07 18:10 55.83203 41.79350 39932 ft 423 kts 269°
2026-05-07 18:10 55.83085 41.68885 39931 ft 423 kts 269°
2026-05-07 18:11 55.82957 41.58416 39940 ft 423 kts 269°
2026-05-07 18:11 55.82821 41.47967 39935 ft 423 kts 268°
2026-05-07 18:12 55.82676 41.37501 39928 ft 423 kts 268°
2026-05-07 18:12 55.82522 41.27043 39928 ft 422 kts 268°
2026-05-07 18:13 55.82388 41.18356 39929 ft 422 kts 268°
2026-05-07 18:13 55.82218 41.07928 39927 ft 422 kts 268°
2026-05-07 18:14 55.82040 40.97494 39940 ft 422 kts 268°
2026-05-07 18:14 55.81852 40.87052 39934 ft 422 kts 268°
2026-05-07 18:15 55.81656 40.76609 39934 ft 422 kts 268°
2026-05-07 18:15 55.81450 40.66164 39926 ft 422 kts 268°
2026-05-07 18:16 55.81235 40.55669 39926 ft 421 kts 268°
2026-05-07 18:16 55.81012 40.45249 39931 ft 422 kts 268°
2026-05-07 18:17 55.80781 40.34826 39922 ft 421 kts 268°
2026-05-07 18:17 55.80541 40.24411 39921 ft 421 kts 268°
2026-05-07 18:18 55.80294 40.14068 39926 ft 421 kts 267°
2026-05-07 18:18 55.80040 40.03729 39932 ft 421 kts 267°
2026-05-07 18:19 55.79783 39.93409 39915 ft 421 kts 267°
2026-05-07 18:19 55.79559 39.84678 39915 ft 420 kts 267°
2026-05-07 18:20 55.79104 39.76075 39919 ft 420 kts 262°
2026-05-07 18:20 55.78404 39.65766 39915 ft 420 kts 264°
2026-05-07 18:21 55.77737 39.55457 39915 ft 420 kts 263°
2026-05-07 18:21 55.77045 39.45158 39918 ft 420 kts 263°
2026-05-07 18:22 55.76336 39.34863 39913 ft 419 kts 263°
2026-05-07 18:22 55.75614 39.24587 39910 ft 420 kts 263°
2026-05-07 18:23 55.74883 39.14295 39914 ft 419 kts 263°
2026-05-07 18:23 55.74153 39.04147 39901 ft 419 kts 263°
2026-05-07 18:24 55.73517 38.93857 39905 ft 419 kts 268°
2026-05-07 18:24 55.73843 38.83549 39899 ft 419 kts 275°
2026-05-07 18:25 55.74361 38.73231 39896 ft 419 kts 274°
2026-05-07 18:25 55.74908 38.62929 39897 ft 419 kts 279°
2026-05-07 18:26 55.76290 38.54947 39898 ft 421 kts 294°